Cedar Island, NC

7:40 AM EST on February 12, 2016 (GMT -0500)
Piney Island

Weather History for KNBT - March, 2013

Change the Weather History Date:

Wednesday, March 27, 2013

  Actual Average (KMRH) Record (KMRH)
Temperature  
Mean Temperature 47 °F -  
Max Temperature 55 °F 65 °F 77 °F (1989)
Min Temperature 39 °F 44 °F 25 °F (1955)
Degree Days  
Heating Degree Days 18    
Moisture  
Dew Point 30 °F    
Average Humidity 52    
Maximum Humidity 68    
Minimum Humidity 31    
Precipitation  
Precipitation 0.00 in - - ()
Sea Level Pressure  
Sea Level Pressure 30.13 in    
Wind  
Wind Speed 12 mph (NW)    
Max Wind Speed 17 mph    
Max Gust Speed 23 mph    
Averages and records for this station are not official NWS values.
T = Trace of Precipitation, MM = Missing Value Source: NWS Daily Summary

Daily Weather History Graph

Daily Weather History Graph

Search for Another Location

Airport or City:

Trip Planner

Search our weather history database for the weather conditions in past years. The results will help you decide how hot, cold, wet, or windy it might be!

Date:

Astronomy

Mar. 27, 2013 Rise Set
Actual Time 6:59 AM EDT 7:23 PM EDT
Civil Twilight 6:33 AM EDT 7:48 PM EDT
Nautical Twilight 6:04 AM EDT 8:18 PM EDT
Astronomical Twilight 5:34 AM EDT 8:48 PM EDT
Moon 8:01 PM EDT (3/27) 6:50 AM EDT (3/27)
Length of Visible Light 13h 14m
Length of Day
12h 24m
Full, 100% of the Moon is Illuminated
Mar 27
Full
Apr 3
Last Quarter
Apr 10
New
Apr 18
First Quarter
Apr 25
Full

Hourly Weather History & Observations

Time (EDT) Temp. Windchill Dew Point Humidity Pressure Visibility Wind Dir Wind Speed Gust Speed Precip Events Conditions
12:56 AM 46.0 °F 41.4 °F 35.1 °F 66% 30.07 in - West 9.2 mph - N/A   Overcast
1:56 AM 45.0 °F 38.5 °F 34.0 °F 65% 30.08 in - West 13.8 mph - N/A   Clear
2:56 AM 44.1 °F 37.1 °F 32.0 °F 63% 30.08 in - WNW 15.0 mph 23.0 mph N/A   Clear
3:56 AM 43.0 °F 36.0 °F 30.9 °F 62% 30.08 in - WNW 13.8 mph 20.7 mph N/A   Clear
4:56 AM 41.0 °F 33.9 °F 30.9 °F 67% 30.09 in - WNW 12.7 mph - N/A   Clear
5:56 AM 41.0 °F 33.5 °F 30.9 °F 67% 30.11 in - WNW 13.8 mph - N/A   Clear
6:56 AM 39.9 °F 33.4 °F 30.0 °F 68% 30.12 in - WNW 10.4 mph - N/A   Clear
7:56 AM 41.0 °F 33.5 °F 30.0 °F 65% 30.14 in - NW 13.8 mph 21.9 mph N/A   Clear
8:56 AM 43.0 °F 35.4 °F 30.9 °F 62% 30.16 in - NW 16.1 mph - N/A   Clear
9:56 AM 46.0 °F 40.2 °F 32.0 °F 58% 30.16 in - WNW 12.7 mph - N/A   Unknown
10:56 AM 48.9 °F - 30.0 °F 48% 30.16 in - NNW 13.8 mph - N/A   Clear
11:56 AM 48.9 °F - 30.0 °F 48% 30.15 in - NNW 10.4 mph - N/A   Clear
12:56 PM 51.1 °F - 28.0 °F 41% 30.14 in - WNW 9.2 mph - N/A   Partly Cloudy
1:56 PM 53.1 °F - 27.0 °F 37% 30.13 in - Variable 5.8 mph - N/A   Scattered Clouds
2:56 PM 54.0 °F - 26.1 °F 34% 30.12 in - West 12.7 mph 23.0 mph N/A   Clear
3:56 PM 55.0 °F - 25.0 °F 31% 30.10 in - West 13.8 mph - N/A   Partly Cloudy
4:56 PM 55.0 °F - 27.0 °F 34% 30.10 in - WNW 17.3 mph - N/A   Scattered Clouds
5:56 PM 54.0 °F - 26.1 °F 34% 30.11 in - NW 13.8 mph - N/A   Mostly Cloudy
6:56 PM 52.0 °F - 30.0 °F 43% 30.13 in - NNW 12.7 mph - N/A   Overcast
7:56 PM 50.0 °F - 30.0 °F 46% 30.14 in - NW 8.1 mph - N/A   Scattered Clouds
8:56 PM 48.9 °F - 30.9 °F 50% 30.16 in - NW 6.9 mph - N/A   Mostly Cloudy
9:56 PM 46.9 °F - 32.0 °F 56% 30.18 in - WNW 6.9 mph - N/A   Mostly Cloudy
10:56 PM 46.0 °F 41.9 °F 30.0 °F 54% 30.19 in - NW 8.1 mph - N/A   Clear
11:56 PM 46.0 °F 40.2 °F 28.0 °F 50% 30.19 in - WNW 12.7 mph 20.7 mph N/A   Clear